User: anonymous   Login
Location: Oshawa
(43.9000°N, 78.8670°W)
Time: 04:39:16
(UTC-05:00)
Language:

CZ-4C R/B - Orbit

View from above orbital plane
View from above orbital plane
View from above satellite
View from above satellite

Ground track
Ground track

The orbit data is extracted from the following two-line orbital elements,

1 32290U 07055B   16343.23375865  .00002666  00000-0  78145-4 0  9998
2 32290  97.5269  79.9551 0070457  92.6986 268.2324 15.33687670502544
Epoch (UTC): 08 December 2016 05:36:36
Eccentricity: 0.0070457
inclination: 97.5269°
perigee height: 416 km
apogee height: 513 km
right ascension of ascending node: 79.9551°
argument of perigee: 92.6986°
revolutions per day: 15.33687670
mean anomaly at epoch: 268.2324°
orbit number at epoch: 50254

The dashed part of the orbit path shows where the satellite is in the earth's shadow,  

DLR